Cloud_Cover
0 0 0 12 36 44 12 24 48 76 76 32 12 24 80 88 80 68 56 24 12 12 24 8 0 0 0 0 0 8 8 8 8 0 0 0 0 0 0 0 0 20 48 80 76 64 76 92 92 92 92 92 88 80 88 76 64 48 36 32 32 48 92 68 48 32 20 12 24 32 12 32 48 56 48 48 56 64 76 68 64 64 48 48 76 92 80 92 88 80 88 48 32 20 12 8 8 8 12 12 36 64 76
0 0 0 0 12 20 8 12 24 48 76 64 36 24 76 88 88 80 56 44 24 20 24 8 0 0 0 0 8 8 8 8 8 8 0 0 0 0 0 0 0 8 36 64 64 64 56 88 92 92 92 92 92 88 88 88 76 64 56 48 44 56 92 56 36 32 20 20 12 12 12 24 44 64 56 48 48 56 68 64 56 56 56 48 68 88 76 92 88 88 88 68 44 20 12 8 8 8 8 24 64 80 44
0 0 0 0 0 12 32 20 20 36 76 76 64 48 36 76 88 92 80 56 44 32 36 44 24 0 0 8 20 32 32 12 8 12 0 0 0 0 0 0 0 12 56 68 80 76 56 88 92 92 92 92 92 92 92 92 80 64 48 56 56 48 48 56 36 24 20 20 20 20 20 20 36 56 48 48 48 48 48 48 56 64 56 48 56 68 80 80 76 76 88 64 44 24 8 20 12 8 8 12 36 56 56
0 8 8 32 44 48 56 44 36 44 80 68 48 32 20 56 76 88 88 80 64 32 12 48 48 24 8 12 32 44 48 20 8 8 8 0 0 0 0 0 0 0 8 48 68 76 92 92 92 92 92 92 92 92 92 92 92 80 56 56 56 48 44 56 44 32 24 24 24 24 20 20 24 36 48 44 44 44 44 36 36 44 56 48 48 56 64 56 48 48 64 44 36 32 32 44 32 8 8 12 32 48 80
0 12 20 24 20 32 64 68 76 80 88 88 76 56 24 32 56 76 80 80 80 76 64 44 36 36 12 36 44 36 32 20 8 8 8 0 0 0 0 0 0 0 0 48 80 92 88 88 92 92 92 92 92 92 92 92 92 88 64 64 64 56 56 48 44 44 48 32 24 24 24 24 20 24 48 48 44 36 44 36 32 32 32 48 56 56 48 44 44 44 44 48 44 36 36 56 36 8 8 44 56 64 76
8 12 12 20 24 24 24 64 80 88 80 80 80 64 44 64 56 56 92 88 76 56 36 24 32 44 36 36 32 20 20 24 24 24 24 8 0 0 0 0 0 0 0 0 44 88 92 92 92 92 92 92 92 92 92 92 92 92 88 76 80 88 64 56 48 44 44 32 32 24 24 24 24 24 48 44 44 36 44 44 36 24 24 44 48 64 92 48 36 44 44 44 36 32 48 64 64 44 8 12 32 56 76
8 20 20 24 44 64 44 76 80 80 76 64 56 56 68 80 44 24 80 88 88 80 68 48 32 32 32 36 48 48 36 32 44 56 56 24 8 0 0 0 0 0 0 0 44 92 92 92 92 92 92 92 92 92 92 92 92 92 92 88 76 64 56 68 64 56 44 36 32 24 24 20 20 24 32 36 36 36 44 32 36 44 48 44 48 68 92 92 68 36 36 48 48 48 76 64 56 44 8 12 24 56 92
20 24 24 64 64 48 48 76 80 80 80 80 76 76 68 56 32 8 8 56 80 88 76 68 44 24 12 20 32 36 32 24 36 48 48 32 12 0 0 0 0 0 0 0 32 76 92 88 92 92 92 92 92 92 92 92 92 92 92 88 80 76 76 68 68 68 56 48 36 24 8 8 20 24 32 32 36 36 36 20 24 36 48 44 32 44 92 92 92 76 36 44 36 48 92 92 76 44 24 20 24 48 80
44 48 56 76 80 80 76 80 80 88 88 80 68 64 76 48 24 8 12 20 56 80 76 80 56 32 32 68 56 36 24 20 44 64 48 24 8 0 0 0 0 0 0 0 12 44 92 92 92 92 92 92 92 92 92 92 92 92 92 92 88 76 68 68 68 68 68 44 36 36 20 8 8 12 24 24 32 32 36 12 24 36 48 32 32 48 92 92 92 80 32 36 44 56 92 92 80 56 36 20 24 48 92
56 64 80 88 88 76 36 68 88 88 80 80 88 88 88 88 48 12 12 20 24 44 92 80 48 24 20 44 36 24 36 24 24 36 44 44 24 0 0 0 0 0 0 0 12 44 92 92 92 92 92 80 88 92 92 92 92 92 92 92 92 88 76 76 76 68 68 68 56 44 32 20 20 12 12 12 20 24 24 8 0 12 44 32 36 56 92 92 80 56 36 36 36 44 48 80 80 64 36 20 12 36 92
68 80 80 88 88 80 80 64 68 88 88 80 88 88 92 76 76 80 76 36 56 80 64 80 80 76 68 48 32 12 8 20 24 24 12 36 36 20 0 0 0 0 0 0 8 32 68 88 92 92 92 80 80 88 92 92 92 92 92 92 92 92 88 80 80 76 76 76 48 32 36 32 24 20 12 24 20 20 24 8 8 20 32 32 32 44 88 92 76 48 32 36 44 56 68 88 80 68 68 24 12 24 56
48 76 76 80 80 76 56 64 80 92 92 64 68 88 88 80 76 76 76 76 76 80 80 76 76 76 48 56 44 24 20 36 24 8 8 32 48 44 0 0 0 0 0 0 0 20 56 80 80 80 92 88 76 68 88 88 92 92 92 92 92 92 88 88 80 80 76 68 64 48 24 36 44 36 20 32 24 12 20 8 0 12 36 32 32 36 76 68 68 56 32 36 36 56 88 68 64 68 80 36 24 32 56
48 68 76 56 64 68 64 76 88 92 92 88 88 88 92 92 88 80 76 88 80 68 64 80 76 56 44 24 44 64 24 44 24 8 20 24 36 32 12 0 0 0 0 0 0 12 56 88 80 76 92 92 76 56 76 80 88 88 88 88 92 92 88 88 80 80 80 68 56 44 24 32 36 44 36 48 44 32 12 8 0 0 20 24 32 36 44 64 64 56 44 32 36 44 36 44 56 68 80 36 20 24 56
64 56 64 64 76 80 80 68 80 92 92 88 88 88 88 80 80 88 92 88 80 80 92 80 68 48 36 20 24 32 36 24 20 20 20 24 32 32 20 0 0 0 0 0 0 0 12 76 88 80 92 92 80 64 56 76 80 88 88 88 92 88 80 80 76 76 80 88 68 44 24 32 32 36 64 64 48 36 20 8 0 0 12 24 32 36 36 48 36 20 20 12 24 32 20 32 44 56 48 44 36 44 64
64 68 64 80 88 88 92 92 92 92 92 92 92 92 92 80 80 88 92 92 88 80 92 92 88 76 64 44 36 48 76 44 24 12 8 8 20 36 44 12 12 20 24 8 0 0 0 68 92 92 92 92 88 76 68 76 80 80 88 88 88 88 80 76 68 64 80 88 76 48 32 32 36 48 80 68 56 48 32 12 8 0 8 20 32 36 44 44 32 24 20 20 20 20 20 32 36 48 48 64 56 56 64
36 76 76 88 88 88 88 92 88 88 92 92 92 92 92 92 92 92 92 88 88 92 92 92 88 80 76 80 88 88 68 56 36 20 8 8 12 32 44 24 44 64 88 48 20 0 0 68 92 92 92 92 92 92 80 76 76 80 80 88 88 92 92 76 48 44 64 88 76 56 36 64 64 64 80 64 56 56 32 24 12 8 8 12 24 44 44 36 32 24 24 24 24 24 20 32 36 36 44 68 68 64 56
48 76 80 80 80 88 88 88 80 76 92 88 92 92 92 92 92 92 92 92 88 88 92 92 92 88 76 68 80 80 64 44 36 32 8 8 0 8 24 24 32 44 76 88 44 0 0 64 80 80 92 92 92 92 88 80 76 80 80 80 88 92 88 64 48 44 32 56 56 48 44 64 76 76 80 56 56 56 44 24 20 12 8 8 20 36 44 36 36 32 24 36 48 48 24 32 36 36 24 64 68 64 68
48 44 56 48 56 64 76 80 80 80 88 88 92 92 92 92 92 92 92 92 88 88 92 92 92 92 80 68 68 76 88 68 68 64 32 8 0 0 0 0 0 8 24 36 24 0 0 44 68 80 88 92 92 92 92 88 80 80 80 88 88 88 88 64 48 44 36 36 44 48 48 64 76 80 80 64 56 56 48 32 20 20 20 12 20 32 36 44 36 36 32 64 88 88 64 44 36 36 36 76 76 64 68
32 36 36 32 36 44 48 68 68 68 76 80 80 88 80 88 88 88 92 92 92 92 92 92 92 88 80 68 68 68 68 88 92 88 76 20 0 0 0 0 0 0 0 0 0 0 0 24 64 88 88 80 88 92 92 92 88 80 80 88 88 88 88 56 44 36 32 36 44 48 68 76 80 88 88 68 56 48 48 32 32 32 20 12 20 32 36 36 36 44 36 56 80 92 92 48 32 36 48 68 68 64 56
24 44 48 36 32 36 36 48 44 44 68 68 76 76 80 76 80 88 92 92 92 92 92 92 88 76 48 36 36 48 48 80 92 92 92 48 24 8 0 0 0 0 0 0 0 0 0 20 48 80 80 76 80 92 92 92 92 88 88 88 88 88 76 56 36 36 48 44 44 56 68 76 68 68 88 64 56 48 44 44 44 36 12 8 12 24 36 32 36 44 44 36 68 92 88 44 32 44 64 68 64 48 56
44 76 80 32 12 20 20 24 20 20 32 64 80 80 56 64 76 80 92 88 92 92 92 92 68 44 12 8 0 8 24 44 68 88 68 64 48 36 20 20 8 0 0 0 0 0 0 8 36 68 68 76 76 80 92 88 88 92 88 88 80 76 64 48 36 36 56 32 36 48 48 76 64 48 76 64 56 48 44 44 44 36 20 8 8 12 24 32 36 44 44 36 48 68 76 44 32 36 64 64 48 48 48
56 56 68 64 44 32 24 36 48 56 48 68 80 88 68 80 76 76 92 88 76 56 48 44 32 20 8 0 0 0 0 8 20 36 36 44 48 48 56 48 32 12 0 0 0 0 0 0 24 56 88 76 68 68 92 80 80 92 92 92 88 76 64 48 32 24 44 20 20 24 32 44 44 48 68 76 64 48 44 44 48 48 20 12 8 12 24 32 36 48 56 44 36 48 76 44 32 44 64 76 64 44 36
80 76 80 88 80 76 76 64 64 64 48 56 76 92 92 92 88 80 68 88 80 76 68 48 44 36 24 32 32 20 0 0 0 0 8 12 12 24 56 36 36 32 12 0 0 0 0 0 8 32 92 88 80 76 76 88 88 92 92 92 88 80 80 56 36 24 24 12 12 20 20 32 36 48 56 80 68 56 48 48 48 48 24 20 20 20 32 32 36 48 68 48 44 44 56 36 44 56 64 68 48 32 24
92 92 92 92 92 80 56 48 64 76 64 48 68 92 92 92 92 88 80 88 92 92 92 88 68 64 76 80 56 32 24 8 0 0 0 0 0 0 12 8 8 20 24 8 0 0 0 0 0 20 88 92 92 80 80 92 92 88 88 92 92 88 88 68 48 32 20 8 12 20 12 36 44 44 48 76 76 56 48 56 64 56 24 24 20 20 32 32 32 44 64 56 48 48 44 36 36 44 68 64 48 36 24
92 92 92 92 92 88 80 80 88 92 88 80 88 92 92 64 68 88 68 88 92 92 92 92 88 88 92 68 48 44 80 76 32 0 0 0 0 0 0 0 0 0 8 20 12 8 0 0 0 12 48 88 92 92 88 92 92 92 80 88 88 88 88 80 56 36 24 12 12 20 20 64 64 48 44 76 76 56 44 44 56 56 36 24 20 24 24 36 36 36 44 48 56 56 56 44 32 36 64 64 56 48 44
92 92 92 92 92 92 92 92 92 92 92 92 92 92 92 88 80 76 48 80 92 92 92 92 80 68 68 64 68 80 92 92 56 24 8 8 0 0 0 0 0 0 0 24 36 32 12 0 0 0 12 44 76 92 92 92 92 92 92 88 88 88 88 76 64 44 24 12 12 20 12 24 56 68 44 56 56 48 44 44 48 56 64 48 36 32 20 32 44 48 36 32 36 48 64 44 36 44 68 68 64 56 56
92 92 92 92 92 92 92 88 88 92 92 92 92 92 92 92 80 68 88 92 92 92 92 68 64 68 64 68 68 68 56 80 68 44 24 20 20 32 64 64 44 24 8 8 24 44 32 8 0 0 0 20 48 80 92 92 92 92 92 92 88 88 88 80 68 48 32 12 8 12 20 20 48 68 44 48 44 36 44 48 68 76 64 56 44 24 12 20 44 64 24 24 24 36 48 44 36 56 92 76 64 56 56
92 92 92 92 92 92 92 92 92 92 92 92 92 92 92 92 92 88 92 92 88 88 92 68 76 76 24 32 32 32 24 48 68 68 24 20 24 56 88 88 88 80 76 56 44 36 32 20 8 0 0 0 32 68 80 92 92 92 92 92 88 88 92 76 64 48 56 20 8 12 12 12 48 68 32 36 44 48 48 48 48 44 44 36 36 32 20 12 24 44 44 32 32 36 36 36 44 48 68 64 56 56 64
92 92 92 92 92 92 92 92 92 92 92 92 92 92 92 92 92 92 92 92 92 92 92 92 92 92 88 64 76 76 48 76 80 80 88 80 88 88 92 92 92 92 92 88 56 24 20 12 0 0 0 0 32 64 64 80 92 92 80 92 92 88 92 80 64 48 56 24 12 20 20 20 24 32 64 36 44 56 32 44 44 36 36 36 36 36 44 36 32 24 36 12 20 36 36 36 64 80 56 56 56 64 64
36 20 88 88 92 88 80 80 88 92 92 92 92 92 92 92 92 92 92 92 92 92 92 76 80 92 92 80 88 80 56 80 76 64 56 80 92 92 92 92 92 92 88 88 76 48 24 12 0 0 0 0 0 12 44 80 64 44 68 88 92 88 92 80 64 44 56 32 36 44 20 20 36 48 24 36 44 44 36 48 44 32 32 48 68 76 44 44 36 24 8 12 24 36 44 44 44 44 48 48 56 68 88
0 12 56 80 92 88 64 44 64 92 92 92 92 92 92 92 92 92 92 92 92 92 92 92 92 88 88 92 92 92 88 92 92 88 68 88 80 80 92 92 92 92 88 88 92 88 68 32 8 0 0 0 0 12 56 44 36 32 36 80 92 92 92 88 68 48 48 32 32 32 20 12 12 12 20 36 44 44 36 36 32 24 32 56 76 76 44 44 48 44 12 20 32 36 32 44 48 56 48 48 64 76 68
0 8 32 76 88 68 8 0 44 92 92 92 92 92 92 92 92 92 92 92 92 92 92 92 92 92 92 92 92 92 92 92 92 88 64 76 68 64 80 88 88 80 88 88 92 92 92 48 24 12 0 0 0 8 44 32 32 24 8 64 88 92 92 76 56 36 24 32 44 48 36 20 12 12 20 64 64 56 56 44 36 24 32 48 64 68 68 44 36 44 48 20 20 36 36 48 48 44 48 56 76 88 68
0 0 0 36 36 12 0 0 36 88 92 92 92 92 92 92 92 92 92 92 92 92 92 92 92 92 92 92 88 80 92 68 76 92 92 92 92 88 68 88 92 92 92 92 92 88 68 88 56 20 12 0 0 0 12 32 24 8 8 64 88 100 100 76 48 32 24 76 68 44 44 36 24 20 24 64 68 56 56 36 36 44 32 36 48 56 64 44 32 32 44 32 24 32 44 56 56 48 56 56 64 64 68
0 0 0 0 0 0 0 0 24 68 92 92 92 92 92 92 92 92 92 92 92 92 92 88 88 88 92 92 92 92 92 68 76 92 92 88 92 92 92 92 92 92 92 88 88 92 92 92 56 32 56 12 0 0 0 12 12 12 12 32 64 92 100 92 64 36 36 76 76 64 44 44 36 24 12 56 68 56 44 68 56 32 36 48 56 64 64 56 44 44 68 44 32 32 44 64 56 48 48 56 76 92 80
0 0 0 0 0 0 0 0 24 68 92 92 92 92 92 92 92 92 92 92 92 92 92 92 92 88 92 92 92 92 92 92 92 92 88 68 76 88 92 92 92 92 92 68 76 88 92 88 80 64 36 8 0 0 0 0 0 8 32 44 48 68 100 100 88 68 48 80 92 88 56 56 44 32 24 64 80 76 44 48 44 44 44 64 64 64 64 56 56 64 76 88 56 32 44 44 48 48 48 56 68 80 92
0 0 0 0 0 0 0 0 20 56 92 92 92 92 92 92 92 92 92 92 92 92 92 92 92 92 92 92 92 92 92 92 92 92 92 88 76 76 92 92 92 92 92 92 92 92 92 88 88 80 48 24 8 0 0 0 0 8 32 56 64 76 92 92 92 88 56 88 92 92 92 68 56 44 44 64 76 76 56 56 44 32 32 48 64 68 68 76 68 68 68 76 64 44 44 48 56 56 44 64 68 68 80
0 0 0 0 0 0 0 0 20 56 92 92 92 92 92 92 92 92 92 92 92 92 92 92 92 92 92 92 92 92 92 92 92 92 92 92 92 92 92 92 92 92 92 88 88 92 92 68 76 88 64 36 20 8 0 0 0 8 20 56 80 88 92 92 92 92 76 92 92 92 92 92 92 76 44 56 68 80 68 64 48 36 20 36 56 76 76 64 64 68 76 76 68 64 48 48 56 56 44 64 68 76 88
0 0 0 0 0 0 0 0 12 48 88 92 92 92 92 92 92 92 92 92 92 92 92 92 92 92 92 92 92 92 92 92 92 92 92 92 88 88 92 92 92 92 92 80 88 92 92 76 76 88 92 48 32 24 0 12 8 8 32 56 80 92 88 92 92 92 92 92 92 92 92 92 92 80 36 36 56 76 80 64 44 36 32 36 64 76 68 64 56 64 80 68 64 64 56 56 48 48 44 44 64 76 76
0 0 0 0 0 0 0 0 0 12 68 88 92 92 92 92 92 92 92 92 92 92 92 92 92 92 92 92 92 92 92 92 92 92 92 92 88 80 80 88 92 92 88 68 76 92 92 92 80 76 92 92 56 20 24 48 32 8 24 48 76 88 92 92 92 92 92 92 92 92 92 92 92 88 48 44 44 64 88 64 44 32 44 44 64 76 56 56 56 64 68 48 56 64 56 68 56 44 44 44 68 88 76
0 0 0 0 0 0 0 0 0 20 76 88 92 92 92 92 92 92 92 92 92 92 92 92 92 92 92 92 92 92 92 92 92 92 92 92 92 88 76 80 88 92 80 88 92 92 92 92 80 80 92 76 48 36 64 68 44 32 36 48 68 80 88 92 92 92 92 92 92 92 92 92 92 92 92 80 68 68 88 76 48 32 36 36 48 64 64 64 68 68 48 48 64 68 64 64 48 44 36 36 56 68 56
0 0 0 0 0 0 0 0 0 20 92 92 92 92 92 92 92 92 92 92 92 92 92 92 92 92 88 92 92 92 92 92 92 92 92 80 88 88 68 64 76 92 92 92 92 92 92 92 92 92 92 68 64 68 68 48 56 64 64 76 88 92 88 88 92 92 92 92 92 92 92 92 92 92 92 92 92 88 88 88 76 48 32 36 44 48 64 64 76 80 56 64 68 76 68 56 44 36 36 32 56 68 48
0 0 0 0 0 0 0 0 0 20 80 88 92 92 92 92 92 92 92 92 92 92 92 92 92 92 92 92 92 92 92 92 92 92 92 80 76 64 36 44 68 92 92 76 76 80 92 92 92 92 92 92 92 88 64 36 48 76 92 92 92 92 92 88 92 92 92 92 92 92 92 92 92 92 92 92 92 92 88 88 88 80 44 56 48 48 64 76 88 88 76 80 76 68 68 64 44 32 32 48 76 80 56
0 0 0 0 0 0 0 0 0 12 48 80 92 92 92 92 92 92 92 92 92 92 92 92 92 92 92 92 92 92 92 92 92 92 92 92 76 48 44 48 76 88 64 32 24 44 92 92 80 76 88 92 92 80 48 12 24 56 92 92 92 92 92 92 92 92 92 92 92 92 92 92 92 92 92 92 92 88 80 88 88 80 64 64 64 64 76 80 88 92 88 80 68 64 76 64 44 36 36 76 80 68 64
0 0 0 0 0 0 0 0 0 0 12 68 92 88 76 88 92 92 92 92 92 92 92 92 92 92 92 92 92 92 92 80 80 80 88 88 80 68 56 64 80 76 20 12 0 12 68 88 88 80 88 92 92 68 8 8 24 48 92 92 92 92 92 92 92 92 92 92 92 92 92 92 92 92 92 92 92 88 80 80 80 80 76 68 68 76 80 80 88 88 76 68 68 68 88 76 48 32 36 80 80 64 64
0 0 0 0 0 0 0 0 0 0 0 68 92 88 76 88 92 92 92 92 92 92 92 92 92 92 92 92 88 80 88 80 76 68 80 68 56 48 48 76 68 44 12 12 8 12 64 88 92 92 92 92 92 76 24 44 48 68 92 92 92 92 92 92 92 92 92 92 92 92 92 92 92 92 92 92 92 92 88 68 76 80 68 76 76 80 80 80 80 80 76 76 68 64 80 64 48 36 36 80 80 64 64
0 0 0 0 0 0 0 0 0 0 0 48 76 88 88 88 92 92 92 92 92 92 92 92 92 92 92 76 76 88 88 92 88 88 88 80 64 48 48 80 80 56 12 20 12 8 32 80 92 80 48 80 80 76 76 80 88 88 80 92 92 92 92 92 92 100 100 92 92 92 92 92 92 92 92 92 92 92 92 68 76 80 56 76 80 88 80 80 80 80 68 80 76 64 64 48 44 44 44 68 76 68 64
0 0 0 0 0 0 0 0 0 0 0 36 68 88 76 88 88 92 92 92 92 92 92 92 92 92 92 80 88 92 92 92 92 92 92 92 88 80 68 88 92 76 20 20 20 36 68 80 80 76 76 64 68 88 92 92 92 92 92 92 92 92 92 92 92 100 100 92 92 92 92 92 92 92 92 92 92 92 92 88 88 80 56 68 80 88 80 80 76 76 88 80 68 56 48 68 64 44 56 64 64 64 56
0 0 0 0 0 0 0 0 0 0 0 20 56 80 76 80 92 92 92 92 92 92 92 92 92 92 92 92 92 92 92 92 92 92 92 68 68 80 92 92 64 24 32 36 64 80 92 68 56 48 64 56 76 88 88 88 92 92 92 92 92 92 92 92 92 100 100 92 92 92 92 92 92 92 92 92 92 92 92 92 88 76 76 68 76 76 76 80 68 68 92 88 64 36 32 80 88 80 68 68 68 68 68
0 0 0 0 0 0 0 0 0 0 0 0 44 80 68 88 92 92 92 92 92 92 92 92 92 92 92 92 92 92 80 80 88 92 92 88 88 92 92 36 24 36 48 64 80 92 92 88 68 44 32 24 24 24 20 56 76 80 64 80 92 92 92 92 92 92 92 100 92 92 92 92 92 92 92 92 92 92 92 92 92 88 88 80 76 76 80 80 68 64 68 56 44 36 36 80 92 92 80 76 76 76 68
0 0 0 0 0 0 0 0 0 0 0 0 8 32 64 64 80 92 92 92 92 92 92 88 88 88 92 92 92 88 48 56 76 88 56 88 92 92 92 56 48 56 56 68 88 92 92 92 88 68 24 8 0 0 0 24 48 64 44 76 88 92 92 92 92 92 92 100 100 92 92 92 92 92 92 92 92 92 92 92 88 88 92 88 80 80 80 80 76 64 48 44 36 36 36 80 92 92 88 80 80 76 68
0 0 0 0 0 0 0 0 0 0 0 0 0 12 64 80 88 92 92 92 92 92 92 88 68 68 92 92 92 92 88 76 80 92 88 88 68 56 92 68 76 88 88 92 92 92 92 76 76 76 24 8 0 0 0 12 32 44 44 80 92 92 92 92 92 92 92 92 92 100 100 92 92 92 92 92 92 92 92 92 92 92 88 80 80 88 88 80 68 64 64 56 56 56 64 80 92 92 88 80 76 80 80
0 0 0 0 0 0 0 0 0 0 0 0 0 8 32 76 88 88 88 92 92 92 92 92 80 68 76 88 92 92 92 88 48 36 76 32 36 56 56 80 92 88 64 48 68 88 88 88 88 88 80 32 8 0 0 0 32 64 64 88 92 92 92 92 92 92 92 92 92 92 100 92 92 92 92 92 92 92 92 92 92 92 92 88 88 92 92 80 76 68 76 76 80 80 80 88 92 92 92 80 76 80 80
0 0 0 0 0 0 0 0 0 0 0 0 0 12 48 64 76 88 88 88 92 92 92 92 92 92 88 92 88 80 76 88 76 68 92 92 92 92 88 92 92 80 44 36 24 20 0 0 0 24 88 64 24 0 20 24 36 56 68 88 92 92 92 92 92 92 92 92 92 92 100 92 92 92 92 92 92 92 92 92 92 88 92 92 88 92 92 92 88 80 80 88 88 88 88 80 88 92 92 88 80 80 80
0 0 0 0 0 0 0 0 0 0 0 0 0 12 64 64 76 92 92 88 88 92 92 92 92 92 92 92 92 92 88 36 56 92 92 88 64 48 92 92 92 88 68 32 12 8 0 0 0 0 0 0 0 8 36 48 56 68 88 92 92 92 92 92 92 92 92 92 92 92 92 92 92 92 92 92 92 92 92 92 88 80 88 92 92 92 92 88 92 92 92 92 88 88 88 88 88 80 88 88 88 80 88
0 0 0 0 0 0 0 0 0 0 0 0 0 12 64 80 92 92 92 92 92 92 92 92 92 92 92 92 92 92 92 92 56 8 0 0 0 0 0 68 92 88 64 32 12 0 0 0 0 0 0 0 0 8 32 68 88 92 92 92 92 92 92 80 88 92 92 92 92 92 92 92 92 92 92 92 92 92 92 92 92 88 76 92 92 92 88 88 88 92 92 92 92 92 92 88 80 80 76 88 88 80 88
0 0 0 0 0 0 0 0 0 0 0 0 0 0 0 64 88 92 92 92 92 92 92 92 92 92 92 92 92 92 92 92 92 76 20 8 8 8 0 44 76 80 64 36 12 8 0 8 0 0 0 0 20 56 80 64 76 92 92 92 92 92 92 88 92 92 92 92 92 92 92 92 92 92 100 92 92 92 92 92 92 92 80 92 92 92 92 92 88 88 92 92 92 92 88 68 68 68 76 88 88 88 88
0 0 0 0 0 0 0 0 0 0 0 0 0 0 0 48 80 92 88 88 92 92 92 92 92 92 92 92 92 92 92 92 92 92 92 92 92 92 76 24 24 48 76 68 80 88 68 88 56 20 24 8 44 68 24 44 64 88 92 88 80 88 92 92 92 92 92 92 92 92 92 92 92 92 92 92 92 92 92 92 92 92 92 92 92 88 80 80 80 88 92 92 92 92 88 88 88 88 88 88 92 88 88
0 0 0 0 0 0 0 0 0 0 0 0 0 0 0 44 76 92 92 92 92 92 92 92 92 92 92 92 92 92 92 92 88 88 80 92 92 92 92 92 56 24 48 80 92 92 92 92 88 68 32 32 64 80 44 80 68 64 88 56 68 92 92 92 92 92 92 92 92 92 92 92 92 92 92 92 92 92 92 92 92 92 92 92 88 80 80 80 88 88 92 92 92 88 88 92 88 80 88 88 92 92 92
0 0 0 0 0 0 0 0 0 0 0 0 0 8 44 76 80 88 92 92 92 92 92 92 92 92 92 92 92 92 92 92 92 92 92 92 88 88 88 92 92 88 76 88 92 92 92 92 68 48 64 80 92 92 92 92 92 80 64 88 92 92 92 92 92 92 92 92 92 92 92 92 92 92 92 92 92 92 92 92 92 92 92 92 88 80 80 76 80 92 88 88 88 88 92 92 88 88 88 88 88 92 92
0 0 0 0 0 0 0 0 0 0 0 0 0 20 80 80 80 88 92 92 92 92 92 92 92 92 92 92 92 92 92 92 92 92 92 92 92 92 76 88 88 92 92 92 92 92 92 92 92 92 92 92 92 92 92 92 92 80 56 88 92 92 92 92 92 92 92 92 92 92 92 92 92 92 92 92 92 92 92 92 92 92 92 92 88 76 76 76 80 92 88 80 80 80 92 92 92 88 88 88 88 88 88
0 0 0 0 0 0 0 0 0 0 0 0 0 20 80 80 80 88 92 88 92 92 92 92 92 92 92 92 92 92 92 92 92 92 92 92 92 92 92 92 80 76 88 92 92 92 92 92 92 92 92 92 92 92 92 92 92 92 100 92 92 92 92 92 92 92 92 92 92 92 92 92 92 92 92 92 92 92 92 92 92 92 92 92 88 76 76 76 88 92 92 88 80 80 80 92 92 92 88 80 76 76 80